Regional Weather Roundup
Issued by NWS

Home | Current Version | Previous Version | Graphics & Text | Print | Product List | Glossary On
Versions: 1 2 3 4 5 6 7 8 9 10 11 12 13 14 15 16 17 18 19 20 21 22 23 24 25 26 27 28 29 30 31 32 33 34 35 36 37 38 39 40 41 42 43 44 45 46 47 48 49 50
000
ASUS43 KLMK 220310
RWRKY
KENTUCKY REGIONAL WEATHER ROUNDUP
NATIONAL WEATHER SERVICE LOUISVILLE KY
1100 PM EDT SAT APR 21 2018

NOTE "FAIR" INDICATES FEW OR NO CLOUDS BELOW 12,000 FEET
WITH NO SIGNIFICANT WEATHER AND/OR OBSTRUCTIONS TO VISIBILITY.

KYZ001>023-026-027-061>063-070>075-220400-
WESTERN AND SOUTH CENTRAL KENTUCKY

CITY           SKY/WX    TMP DP  RH WIND       PRES   REMARKS
PADUCAH        FAIR      65  36  34 E10       30.13F
HENDERSON      FAIR      60  39  45 E10       30.23S
OWENSBORO      FAIR      61  35  37 NE8       30.24S
HOPKINSVILLE   MOCLDY    61  38  43 E3        30.19S
BOWLING GREEN  FAIR      56  40  55 CALM      30.23R
GLASGOW        FAIR      59  36  42 NE6       30.23S
$$

KYZ024-025-028>034-038-045-046-053-220400-
NORTH CENTRAL KENTUCKY

CITY           SKY/WX    TMP DP  RH WIND       PRES   REMARKS
LOUISVILLE/SDF CLOUDY    59  28  30 NE8       30.28R
LOUISVILLE/LOU FAIR      58  28  32 NE9       30.29R
FORT KNOX      FAIR      58  29  33 NE5       30.27R
$$

KYZ035>037-039>044-047>052-055>060-089>105-220400-
NORTHEAST KENTUCKY

CITY           SKY/WX    TMP DP  RH WIND       PRES   REMARKS
LEXINGTON      FAIR      53  31  42 NE13      30.28R
COVINGTON      CLOUDY    54  21  27 NE12      30.32F
FRANKFORT      FAIR      57  26  30 NE9       30.28R
$$

KYZ054-064>069-076>088-106>120-220400-
SOUTHEAST KENTUCKY

CITY           SKY/WX    TMP DP  RH WIND       PRES   REMARKS
JACKSON        FAIR      59  20  22 VRB5      30.27S
LONDON         FAIR      58  28  32 NE6       30.25S
SOMERSET       FAIR      55  32  41 MISG      30.25S
MIDDLESBORO    FAIR      50  41  70 CALM      30.26S
MONTICELLO     FAIR      51  39  63 VRB7      30.26R
$$




USA.gov is the U.S. government's official web portal to all federal, state and local government web resources and services.